Content
SEND FEEDBACK

Daily
Averages
Monthly
Summary
United States of America

YIGO, GUAM


Home > North America > United States > Guam
Elevation: 530 feet     Latitude: 13 32N     Longitude: 144 53E

WEATHER
 
SELECT A DAY
Number of Records: 208,807;   Date Range: 1/1/95 - 7/7/14
 
SHARE

PRINT THIS DATA

[ ← Previous Day ]
WEATHER ALMANAC - MARCH 17, 2013
[ Next Day → ]
[ °C ]   °F
Weather ElementAverageHighLow
Temperature82.8 °F89.1 °F (12:54 pm)77 °F (3:54 am)
Dewpoint70.4 °F73.9 °F (10:54 pm)68 °F (9:54 am)
Humidity67.1 %84 % (10:54 pm)50 % (2:54 pm)
Barometer29.90 in29.94 in (8:54 am)29.84 in (3:54 pm)
Wind Speed12.5 mph20.7 mph (12:54 pm)
Wind Gust26.5 mph (12:54 pm)
Weather ElementAverage
Visibility10 mi
Wind DirectionNE (46.7 °)

Weather ElementTotal
Precipitation---
Cooling Degree Days18.1 (Base 65)
Growing Degree Days33.1 (Base 50)
Averaged from 24 records on March 17, 2013
WEATHER CONDITIONS BREAKOUT
WIND DIRECTION BREAKOUT
WEATHER BY HOUR - MARCH 17, 2013
[ °C ]   °F
Local TimeTemperatureDewpointHumidityBarometerVisibilityWind DirectionWind SpeedGust SpeedPrecipitationEventsConditions
1:54 AM79.0 °F71.1 °F77 %29.90 in10.0 miNE (50°)6.9 mphClear
2:54 AM79.0 °F71.1 °F77 %29.88 in10.0 miENE (60°)8.1 mphClear
3:54 AM77.0 °F71.1 °F82 %29.88 in10.0 miNE (40°)4.6 mphClear
4:54 AM77.0 °F71.1 °F82 %29.89 in10.0 miNorth (10°)3.5 mphClear
5:54 AM77.0 °F70.0 °F79 %29.90 in10.0 miNE (40°)8.1 mphPartly Cloudy
6:54 AM79.0 °F71.1 °F77 %29.91 in10.0 miNE (40°)9.2 mphClear
7:54 AM82.0 °F71.1 °F69 %29.93 in10.0 miNE (50°)10.4 mphClear
8:54 AM84.9 °F69.1 °F59 %29.94 in10.0 miNE (50°)15.0 mphPartly Cloudy
9:54 AM87.1 °F68.0 °F53 %29.94 in10.0 miNE (50°)15.0 mphPartly Cloudy
10:54 AM86.0 °F69.1 °F57 %29.93 in10.0 miNNE (30°)16.1 mphScattered Clouds
11:54 AM86.0 °F71.1 °F61 %29.91 in10.0 miNE (40°)17.3 mphMostly Cloudy
12:08 PM87.8 °F69.8 °F55 %29.92 in10.0 miNE (50°)17.3 mphMostly Cloudy
12:54 PM89.1 °F69.1 °F52 %29.88 in10.0 miNE (40°)20.7 mph26.5 mphPartly Cloudy
1:54 PM88.0 °F68.0 °F51 %29.86 in10.0 miNE (50°)19.6 mphScattered Clouds
2:54 PM89.1 °F68.0 °F50 %29.85 in10.0 miNE (50°)18.4 mphScattered Clouds
3:54 PM87.1 °F69.1 °F55 %29.84 in10.0 miNE (40°)19.6 mphScattered Clouds
4:54 PM84.9 °F69.1 °F59 %29.86 in10.0 miENE (60°)15.0 mph23.0 mphScattered Clouds
5:54 PM82.9 °F70.0 °F65 %29.87 in10.0 miNE (50°)15.0 mphPartly Cloudy
6:54 PM81.0 °F72.0 °F74 %29.89 in10.0 miNE (50°)11.5 mphOvercast
7:54 PM81.0 °F72.0 °F74 %29.90 in10.0 miENE (60°)11.5 mphPartly Cloudy
8:54 PM81.0 °F72.0 °F74 %29.91 in10.0 miENE (60°)9.2 mphClear
9:54 PM81.0 °F70.0 °F69 %29.91 in10.0 miNE (50°)11.5 mphPartly Cloudy
10:54 PM79.0 °F73.9 °F84 %29.91 in10.0 miNE (50°)8.1 mph0.00 inMostly Cloudy
11:54 PM80.1 °F72.0 °F76 %29.90 in10.0 miNE (50°)9.2 mphClear
Hourly data recorded from PGUM, located miles away from Yigo, Guam







STORIES FROM OUR PARTNERS